Big Bear Station Historical Data
Daily Summary for August 18, 2017 Units:  English    Metric   Both
« Previous Day
Next Day »
Daily Weekly Monthly Yearly Custom
  High: Low: Average:
Temperature: 81.3 °F 47.5 °F 63.2 °F
Dew Point: 54.8 °F 41.1 °F 46.5 °F
Humidity: 85 % 28 % 58 %
Wind Speed: 6.3 mph 0.0 mph 1.7 mph
Wind Gust: -999.0 mph - -
Wind:- - West
Pressure: 30.29 in 30.24 in -
Precipitation: 0.00 in    
Historical Graphs
 
 
Tabular Data for August 18, 2017
Time Temperature Dew Point Pressure Wind Wind Speed Wind Gust Humidity Rainfall Rate (Hourly)
00:10 53.6 °F 42.9 °F 30.28 in Calm   -999.0 mph 67 % 0 in
00:25 52.9 °F 41.5 °F 30.28 in Calm   -999.0 mph 65 % 0 in
00:40 52.5 °F 41.1 °F 30.28 in Calm   -999.0 mph 65 % 0 in
00:55 52.3 °F 42.1 °F 30.28 in Calm   -999.0 mph 68 % 0 in
01:11 52.3 °F 42.1 °F 30.28 in Calm   -999.0 mph 68 % 0 in
01:26 52.0 °F 42.5 °F 30.27 in Calm   -999.0 mph 70 % 0 in
01:41 51.6 °F 43.2 °F 30.27 in Calm   -999.0 mph 73 % 0 in
01:56 51.3 °F 42.6 °F 30.27 in Calm   -999.0 mph 72 % 0 in
02:11 51.1 °F 42.4 °F 30.27 in Calm   -999.0 mph 72 % 0 in
02:27 50.9 °F 42.2 °F 30.27 in Calm   -999.0 mph 72 % 0 in
02:42 50.7 °F 42.0 °F 30.27 in Calm   -999.0 mph 72 % 0 in
02:57 50.4 °F 42.8 °F 30.27 in Calm   -999.0 mph 75 % 0 in
03:12 50.0 °F 43.4 °F 30.26 in Calm   -999.0 mph 78 % 0 in
03:27 49.8 °F 43.9 °F 30.26 in Calm   -999.0 mph 80 % 0 in
03:43 49.5 °F 42.9 °F 30.26 in Calm   -999.0 mph 78 % 0 in
03:58 49.3 °F 42.4 °F 30.26 in Calm   -999.0 mph 77 % 0 in
04:13 49.1 °F 42.5 °F 30.26 in Calm   -999.0 mph 78 % 0 in
04:28 48.9 °F 42.7 °F 30.26 in Calm   -999.0 mph 79 % 0 in
04:43 48.6 °F 43.0 °F 30.26 in Calm   -999.0 mph 81 % 0 in
04:59 48.4 °F 43.2 °F 30.26 in Calm   -999.0 mph 82 % 0 in
05:14 48.4 °F 43.2 °F 30.26 in Calm   -999.0 mph 82 % 0 in
05:29 48.0 °F 43.1 °F 30.27 in Calm   -999.0 mph 83 % 0 in
05:44 47.8 °F 42.9 °F 30.27 in Calm   -999.0 mph 83 % 0 in
05:59 47.7 °F 42.8 °F 30.27 in SSE 1.7 mph -999.0 mph 83 % 0 in
06:15 47.5 °F 42.3 °F 30.27 in Calm   -999.0 mph 82 % 0 in
06:30 47.7 °F 42.8 °F 30.27 in Calm   -999.0 mph 83 % 0 in
06:45 48.2 °F 43.3 °F 30.28 in Calm   -999.0 mph 83 % 0 in
07:00 48.0 °F 43.4 °F 30.28 in Calm   -999.0 mph 84 % 0 in
07:15 48.6 °F 44.0 °F 30.28 in Calm   -999.0 mph 84 % 0 in
07:31 48.7 °F 44.1 °F 30.29 in Calm   -999.0 mph 84 % 0 in
07:46 49.6 °F 45.0 °F 30.29 in Calm   -999.0 mph 84 % 0 in
08:01 50.4 °F 45.7 °F 30.29 in Calm   -999.0 mph 84 % 0 in
08:16 52.3 °F 47.9 °F 30.29 in Calm   -999.0 mph 85 % 0 in
08:32 54.3 °F 48.3 °F 30.29 in Calm   -999.0 mph 80 % 0 in
08:47 56.7 °F 48.9 °F 30.29 in Calm   -999.0 mph 75 % 0 in
09:02 59.4 °F 50.0 °F 30.29 in Calm   -999.0 mph 71 % 0 in
09:17 65.1 °F 46.5 °F 30.29 in NW 1.7 mph -999.0 mph 51 % 0 in
09:32 66.6 °F 45.2 °F 30.29 in NNE 3.2 mph -999.0 mph 46 % 0 in
09:48 68.4 °F 44.4 °F 30.29 in NW 2.7 mph -999.0 mph 42 % 0 in
10:03 69.6 °F 43.5 °F 30.29 in NNW 2.7 mph -999.0 mph 39 % 0 in
10:18 71.1 °F 44.2 °F 30.29 in NW 6.3 mph -999.0 mph 38 % 0 in
10:33 72.1 °F 44.4 °F 30.29 in NNW 4.2 mph -999.0 mph 37 % 0 in
10:48 73.8 °F 45.2 °F 30.29 in NNW 6.3 mph -999.0 mph 36 % 0 in
11:04 75.0 °F 45.5 °F 30.29 in North 5.8 mph -999.0 mph 35 % 0 in
11:19 75.7 °F 45.3 °F 30.29 in North 4.2 mph -999.0 mph 34 % 0 in
11:34 77.4 °F 46.1 °F 30.29 in WNW 1.7 mph -999.0 mph 33 % 0 in
11:49 78.1 °F 45.0 °F 30.29 in West 4.2 mph -999.0 mph 31 % 0 in
12:04 78.4 °F 46.1 °F 30.29 in NNW 4.2 mph -999.0 mph 32 % 0 in
12:20 79.9 °F 46.6 °F 30.28 in North 3.2 mph -999.0 mph 31 % 0 in
12:35 78.8 °F 43.9 °F 30.28 in NW 4.2 mph -999.0 mph 29 % 0 in
12:50 81.0 °F 44.8 °F 30.28 in SW 2.2 mph -999.0 mph 28 % 0 in
13:05 81.3 °F 48.6 °F 30.28 in NW 4.7 mph -999.0 mph 32 % 0 in
13:21 81.1 °F 48.5 °F 30.28 in NW 4.2 mph -999.0 mph 32 % 0 in
13:36 78.6 °F 50.2 °F 30.28 in NNE 3.2 mph -999.0 mph 37 % 0 in
13:51 76.3 °F 49.5 °F 30.27 in NW 4.2 mph -999.0 mph 39 % 0 in
14:07 80.8 °F 52.1 °F 30.28 in North 3.7 mph -999.0 mph 37 % 0 in
14:22 79.3 °F 51.5 °F 30.27 in NW 5.3 mph -999.0 mph 38 % 0 in
14:37 79.2 °F 51.4 °F 30.27 in NW 4.2 mph -999.0 mph 38 % 0 in
14:52 79.5 °F 53.1 °F 30.27 in WNW 4.7 mph -999.0 mph 40 % 0 in
15:07 79.0 °F 54.6 °F 30.26 in NW 4.7 mph -999.0 mph 43 % 0 in
15:23 78.6 °F 52.9 °F 30.26 in West 3.2 mph -999.0 mph 41 % 0 in
15:38 78.3 °F 53.3 °F 30.26 in WNW 4.7 mph -999.0 mph 42 % 0 in
15:53 78.1 °F 51.1 °F 30.26 in NNW 3.7 mph -999.0 mph 39 % 0 in
16:08 78.1 °F 52.5 °F 30.25 in NW 6.3 mph -999.0 mph 41 % 0 in
16:23 76.8 °F 51.3 °F 30.25 in NE 3.2 mph -999.0 mph 41 % 0 in
16:39 76.8 °F 52.6 °F 30.25 in NW 4.7 mph -999.0 mph 43 % 0 in
16:54 78.8 °F 53.8 °F 30.25 in NW 4.7 mph -999.0 mph 42 % 0 in
17:09 79.0 °F 54.0 °F 30.25 in NW 5.3 mph -999.0 mph 42 % 0 in
17:24 78.4 °F 51.4 °F 30.25 in ESE 1.7 mph -999.0 mph 39 % 0 in
17:39 78.3 °F 52.7 °F 30.25 in NW 3.7 mph -999.0 mph 41 % 0 in
17:55 78.3 °F 54.6 °F 30.25 in NNW 3.7 mph -999.0 mph 44 % 0 in
18:10 76.6 °F 54.3 °F 30.25 in NNW 4.2 mph -999.0 mph 46 % 0 in
18:25 75.9 °F 54.8 °F 30.24 in NW 3.2 mph -999.0 mph 48 % 0 in
18:40 71.6 °F 53.0 °F 30.24 in WNW 2.7 mph -999.0 mph 52 % 0 in
18:55 69.8 °F 52.4 °F 30.25 in Calm   -999.0 mph 54 % 0 in
19:11 68.2 °F 51.9 °F 30.25 in NNE 1.7 mph -999.0 mph 56 % 0 in
19:26 67.1 °F 51.4 °F 30.25 in Calm   -999.0 mph 57 % 0 in
19:41 66.0 °F 50.3 °F 30.25 in Calm   -999.0 mph 57 % 0 in
19:56 64.9 °F 49.3 °F 30.25 in Calm   -999.0 mph 57 % 0 in
20:27 62.8 °F 48.7 °F 30.25 in Calm   -999.0 mph 60 % 0 in
20:42 61.7 °F 46.8 °F 30.26 in Calm   -999.0 mph 58 % 0 in
20:57 60.8 °F 46.4 °F 30.26 in Calm   -999.0 mph 59 % 0 in
21:12 59.9 °F 45.5 °F 30.27 in SSW 2.2 mph -999.0 mph 59 % 0 in
21:28 59.2 °F 44.9 °F 30.27 in Calm   -999.0 mph 59 % 0 in
21:43 58.6 °F 44.3 °F 30.27 in Calm   -999.0 mph 59 % 0 in
21:58 57.9 °F 43.7 °F 30.27 in South 1.7 mph -999.0 mph 59 % 0 in
22:14 57.6 °F 43.4 °F 30.27 in Calm   -999.0 mph 59 % 0 in
22:29 56.8 °F 43.1 °F 30.27 in Calm   -999.0 mph 60 % 0 in
22:44 56.5 °F 43.2 °F 30.27 in Calm   -999.0 mph 61 % 0 in
22:59 55.9 °F 44.3 °F 30.27 in Calm   -999.0 mph 65 % 0 in
23:15 55.4 °F 43.8 °F 30.27 in Calm   -999.0 mph 65 % 0 in
23:30 54.9 °F 43.8 °F 30.27 in Calm   -999.0 mph 66 % 0 in
23:45 54.5 °F 43.4 °F 30.27 in Calm   -999.0 mph 66 % 0 in
Big Bear CA Weather
Compliments of Weather Underground - 1.5 mb